Flag for Germany Weather past 2 weeks in Deggendorf, Bavaria, Germany

Now
59 °F

Overcast.


Feels Like: 59 °F
Forecast: 48 / 62 °F
Wind: 3 mph from South

Location: Straubing

Current Time: Aug 20, 2014 at 9:14:00 PM

Latest Report: Aug 20, 2014 at 8:00 PM


Visibility: 17 mi

Pressure: 30.01 "Hg

Humidity: 78%

Dew point: 52 °F

Location of DeggendorfLocation

Historic Weather in Deggendorf — Graph

°F

Deggendorf temperature yesterday

Maximum temperature yesterday: 70 °F (at 4:00 PM)
Minimum temperature yesterday: 53 °F (at 4:00 AM)
Average temperature yesterday: 61 °F

Past Weeks' High & Low Weather Summary

 TemperatureHumidityPressure
High83 °F (Aug 10, 6:00 PM)98% (Aug 12, 12:00 AM)30.14 "Hg (Aug 12, 12:00 AM)
Low47 °F (Aug 18, 6:00 AM)38% (Aug 6, 6:00 PM)29.68 "Hg (Aug 13, 5:00 PM)
Average63 °F75%29.95 "Hg
* Reported Aug 5 8:00 PM — Aug 20 8:00 PM, Deggendorf, Weather by CustomWeather, © 2014

Note: Actual official high and low records may vary slightly from our data, if they occured in-between our weather recording intervals... More about our weather records

Advertising

Deggendorf weather history for previous 24 hours

 ConditionsComfort  
Time TempWeatherWind HumidityBarometerVisibility
8:00 PM
Aug 20
59 °FOvercast.3 mph78%30.01 "Hg17 mi
7:00 PM62 °FOvercast.5 mph62%30.00 "Hg31 mi
6:00 PM63 °FOvercast.3 mph57%30.00 "Hg34 mi
4:00 PM64 °FOvercast.3 mph51%30.01 "Hg34 mi
3:00 PM63 °FOvercast.2 mph50%30.02 "Hg40 mi
2:00 PM63 °FOvercast.1 mph49%30.02 "Hg43 mi
1:00 PM62 °FOvercast.2 mph54%30.03 "Hg40 mi
12:00 PM62 °FOvercast.2 mph54%30.03 "Hg37 mi
11:00 AM61 °FOvercast.2 mph56%30.04 "Hg43 mi
10:00 AM60 °FOvercast.2 mph62%30.04 "Hg37 mi
9:00 AM57 °FOvercast.2 mph76%30.04 "Hg34 mi
8:00 AM56 °FOvercast.1 mph77%30.04 "Hg40 mi
7:00 AM52 °FOvercast.1 mph89%30.04 "Hg22 mi
6:00 AM53 °FOvercast.2 mph80%30.03 "Hg37 mi
4:00 AM57 °FOvercast.1 mph70%30.00 "Hg43 mi
3:00 AM57 °FOvercast.1 mph72%30.00 "Hg43 mi
2:00 AM58 °FOvercast.2 mph68%29.98 "Hg43 mi
1:00 AM60 °FOvercast.2 mph63%29.96 "Hg40 mi
12:00 AM59 °FOvercast.2 mph69%29.96 "Hg40 mi
11:00 PM
Aug 19
59 °FPassing clouds.1 mph71%29.95 "Hg25 mi
10:00 PM62 °FPassing clouds.2 mph65%29.93 "Hg28 mi
9:00 PM63 °FOvercast.2 mph64%29.91 "Hg28 mi
Weather by CustomWeather, © 2014

See weather overviewHow to use our weather pages